Location: Barrio de Buenos Aires
(28.4500°N, 16.2667°W)
Time: 04:38:00
(UTC+00:00)

CZ-2D R/B - Pass Details

Date: 24 January 2020
Orbit: 523 x 537 km, 97.4° (Epoch: 19 February)

Event Time Altitude Azimuth Distance (km) Brightness Sun altitude
Rises 20:17:15 0° 181° (S) 2,641 6.9 -21.8°
Reaches altitude 10° 20:19:24 10° 188° (S) 1,758 6.1 -22.3°
Maximum altitude 20:23:02 44° 261° (W) 735 4.4 -23.1°
Drops below altitude 10° 20:26:43 10° 334° (NNW) 1,776 6.1 -23.9°
Sets 20:28:54 0° 341° (NNW) 2,672 6.9 -24.4°
